Погода в Новых Шальтямах

Россия / Чувашская Республика     55°21′42″N   47°29′17″E
темп.,
°C
ветер,
м/с
пор.,
м/с
влажн.,
%
обл.,
%
осадки,
мм/ч
давл.,
гПа
погр.,
м
10 мая, пн
пн1000:00+13юз3486100 0.1 101363
03:00+13сз1190100 0.1 101525
06:00+13св5888100 0.1 1015219
09:00+17в4673100 0.1 1017445
12:00+21вюв2357100 0.0 1018981
15:00+22всв2351100 0.0 10191426
18:00+19с5873100 0.3 1020194
21:00+15ссв61193100 2.3 1022305
11 мая, вт
вт1100:00+13ссв5109697 0.1 1023274
03:00+12ссв3894100 0.1 1023188
06:00+13св4891100 0.0 1024215
09:00+18всв4668100 0.0 1025458
12:00+22всв5652100 0.0 1025986
15:00+23в564499 0.0 10252127
18:00+20всв3764100 0.0 1026146
21:00+17в3366100 0.0 102742
12 мая, ср
ср1200:00+16в226996 0.0 102715
03:00+14в337310 0.0 102739
06:00+15в387351 0.0 1027208
09:00+20вюв465758 0.0 1027518
12:00+23юв61045100 0.0 10272067
15:00+23ююв674598 0.0 10261950
18:00+18ююв375998 0.0 1027160
21:00+16юв3358100 0.0 102727
13 мая, чт
чт1300:00+15в226540 0.0 102721
03:00+13вюв337646 0.0 102740
06:00+15вюв387180 0.0 1027206
09:00+20юв695151 0.0 1026777
12:00+23юв783914 0.0 10251295
15:00+23юв6845100 0.0 10241245
18:00+20юв5105874 0.0 1023311
21:00+17юв4136969 0.0 1024270
14 мая, пт
пт1400:00+17юв3967100 0.0 1024201
03:00+15ююв367146 0.0 102491
06:00+16юв397360 0.0 1024222
09:00+22ююв585060 0.0 1023531
12:00+24ююв68428 0.0 10221075
15:00+25ююв68434 0.0 10211226
18:00+23юв4957100 0.0 1020230
21:00+19ю496493 0.0 1020137